Location: Epalinges
(46.5518°N, 6.6683°E)
Time: 18:39:37
(UTC+00:00)

NOSS 3-2 (A) - Visible Passes

Search period start: 21 October 2021 00:00
Search period end: 31 October 2021 00:00
Orbit: 767 x 1440 km, 63.4° (Epoch: 19 October)

Date Brightness Start Highest point End Pass type
(mag) Time Alt. Az. Time Alt. Az. Time Alt. Az.
21 Oct 5.3 18:33:06 10° NW 18:38:22 22° NNE 18:41:10 18° NE visible
21 Oct 5.0 20:24:01 10° NW 20:28:33 37° N 20:28:33 37° N visible
21 Oct 6.2 22:14:51 10° NW 22:15:56 15° NW 22:15:56 15° NW visible
22 Oct 5.4 17:47:20 10° NW 17:52:10 20° N 17:57:07 11° NE visible
22 Oct 4.8 19:38:38 10° NNW 19:44:30 36° NNE 19:44:30 36° NNE visible
22 Oct 5.7 21:29:19 10° NW 21:31:52 25° NW 21:31:52 25° NW visible
23 Oct 5.4 17:01:21 10° NW 17:05:57 19° N 17:11:03 10° NE visible
23 Oct 4.9 18:53:13 10° NNW 18:59:18 29° NNE 19:00:28 28° NE visible
23 Oct 5.1 20:43:54 10° NW 20:47:52 37° NNW 20:47:52 37° NNW visible
24 Oct 5.2 18:07:43 10° NNW 18:13:14 24° NNE 18:16:29 19° NE visible
24 Oct 4.6 19:58:30 10° NW 20:03:52 46° N 20:03:52 46° N visible
24 Oct 6.0 21:49:29 10° NW 21:51:15 18° NW 21:51:15 18° NW visible
25 Oct 5.3 17:22:03 10° NW 17:27:05 21° NNE 17:32:31 10° ENE visible
25 Oct 4.5 19:13:08 10° NNW 19:19:55 42° NE 19:19:55 42° NE visible
25 Oct 5.4 21:03:53 10° NW 21:07:18 31° NW 21:07:18 31° NW visible
26 Oct 4.8 18:27:45 10° NNW 18:34:06 33° NNE 18:36:00 30° ENE visible
26 Oct 4.7 20:18:24 10° NW 20:23:24 49° NW 20:23:24 49° NW visible
26 Oct 6.4 22:10:10 10° WNW 22:10:47 12° WNW 22:10:47 12° WNW visible
27 Oct 5.0 17:42:17 10° NNW 17:48:06 27° NNE 17:52:08 18° ENE visible
27 Oct 4.1 19:32:59 10° NW 19:39:32 62° NNE 19:39:32 62° NNE visible
27 Oct 5.8 21:24:10 10° NW 21:26:56 23° WNW 21:26:56 23° WNW visible
28 Oct 5.2 16:56:42 10° NW 17:01:59 23° NNE 17:07:53 10° ENE visible
28 Oct 4.3 18:47:37 10° NW 18:54:41 49° NE 18:55:44 46° ENE visible
28 Oct 5.1 20:38:27 10° NW 20:43:08 39° WNW 20:43:08 39° WNW visible
29 Oct 4.6 18:02:14 10° NNW 18:08:51 37° NE 18:11:59 28° ENE visible
29 Oct 4.2 19:52:55 10° NW 19:59:24 68° WNW 19:59:24 68° WNW visible
29 Oct 6.3 21:45:12 10° WNW 21:46:48 15° WNW 21:46:48 15° WNW visible
30 Oct 4.9 17:16:49 10° NNW 17:22:55 30° NNE 17:28:19 15° E visible
30 Oct 3.9 19:07:28 10° NW 19:14:57 77° NE 19:15:44 71° E visible
30 Oct 5.6 20:58:56 10° NW 21:03:09 27° W 21:03:09 27° W visible
